Location: Allentsteig
(48.6833°N, 15.3167°E)
Time: 22:28:02
(UTC+00:00)

USA 238 DEB - Pass Details

Date: 17 January 2021
Orbit: 995 x 1217 km, 63.4° (Epoch: 07 March)

Event Time Altitude Azimuth Distance (km) Brightness Sun altitude
Rises 05:58:34 0° 190° (S) 3,711 6.7 -7.6°
Reaches altitude 10° 06:01:16 10° 183° (S) 2,779 6.2 -7.2°
Maximum altitude 06:07:13 38° 117° (ESE) 1,519 5.4 -6.3°
Drops below altitude 10° 06:13:25 10° 52° (NE) 2,908 6.4 -5.4°
Sets 06:16:18 0° 45° (NE) 3,902 6.9 -4.9°
